Year,Month,Day,Hour,Minute,Value (Times are PST for temperature in C)
2021,06,23,00,00,19.70
2021,06,23,00,01,19.70
2021,06,23,00,02,19.70
2021,06,23,00,03,19.70
2021,06,23,00,04,19.70
2021,06,23,00,05,19.60
2021,06,23,00,06,19.60
2021,06,23,00,07,19.60
2021,06,23,00,08,19.60
2021,06,23,00,09,19.60
2021,06,23,00,10,19.60
2021,06,23,00,11,19.60
2021,06,23,00,12,19.60
2021,06,23,00,13,19.50
2021,06,23,00,14,19.50
2021,06,23,00,15,19.50
2021,06,23,00,16,19.50
2021,06,23,00,17,19.40
2021,06,23,00,18,19.40
2021,06,23,00,19,19.40
2021,06,23,00,20,19.30
2021,06,23,00,21,19.30
2021,06,23,00,22,19.30
2021,06,23,00,23,19.30
2021,06,23,00,24,19.20
2021,06,23,00,25,19.20
2021,06,23,00,26,19.20
2021,06,23,00,27,19.20
2021,06,23,00,28,19.20
2021,06,23,00,29,19.10
2021,06,23,00,30,19.10
2021,06,23,00,31,19.10
2021,06,23,00,32,19.10
2021,06,23,00,33,19.10
2021,06,23,00,34,19.10
2021,06,23,00,35,19.10
2021,06,23,00,36,19.10
2021,06,23,00,37,19.00
2021,06,23,00,38,19.00
2021,06,23,00,39,19.00
2021,06,23,00,40,19.00
2021,06,23,00,41,19.00
2021,06,23,00,42,19.00
2021,06,23,00,43,18.90
2021,06,23,00,44,18.90
2021,06,23,00,45,18.80
2021,06,23,00,46,18.80
2021,06,23,00,47,18.80
2021,06,23,00,48,18.80
2021,06,23,00,49,18.80
2021,06,23,00,50,18.80
2021,06,23,00,51,18.80
2021,06,23,00,52,18.80
2021,06,23,00,53,18.80
2021,06,23,00,54,18.80
2021,06,23,00,55,18.80
2021,06,23,00,56,18.70
2021,06,23,00,57,18.70
2021,06,23,00,58,18.70
2021,06,23,00,59,18.70
2021,06,23,01,00,18.60
2021,06,23,01,01,18.60
2021,06,23,01,02,18.60
2021,06,23,01,03,18.50
2021,06,23,01,04,18.50
2021,06,23,01,05,18.50
2021,06,23,01,06,18.40
2021,06,23,01,07,18.40
2021,06,23,01,08,18.40
2021,06,23,01,09,18.40
2021,06,23,01,10,18.40
2021,06,23,01,11,18.40
2021,06,23,01,12,18.40
2021,06,23,01,13,18.40
2021,06,23,01,14,18.40
2021,06,23,01,15,18.40
2021,06,23,01,16,18.40
2021,06,23,01,17,18.40
2021,06,23,01,18,18.40
2021,06,23,01,19,18.40
2021,06,23,01,20,18.30
2021,06,23,01,21,18.30
2021,06,23,01,22,18.30
2021,06,23,01,23,18.30
2021,06,23,01,24,18.20
2021,06,23,01,25,18.20
2021,06,23,01,26,18.20
2021,06,23,01,27,18.20
2021,06,23,01,28,18.10
2021,06,23,01,29,18.10
2021,06,23,01,30,18.10
2021,06,23,01,31,18.00
2021,06,23,01,32,18.00
2021,06,23,01,33,17.90
2021,06,23,01,34,17.90
2021,06,23,01,35,17.90
2021,06,23,01,36,17.90
2021,06,23,01,37,17.80
2021,06,23,01,38,17.80
2021,06,23,01,39,17.80
2021,06,23,01,40,17.80
2021,06,23,01,41,17.70
2021,06,23,01,42,17.70
2021,06,23,01,43,17.70
2021,06,23,01,44,17.60
2021,06,23,01,45,17.60
2021,06,23,01,46,17.50
2021,06,23,01,47,17.50
2021,06,23,01,48,17.40
2021,06,23,01,49,17.40
2021,06,23,01,50,17.40
2021,06,23,01,51,17.40
2021,06,23,01,52,17.40
2021,06,23,01,53,17.40
2021,06,23,01,54,17.40
2021,06,23,01,55,17.40
2021,06,23,01,56,17.40
2021,06,23,01,57,17.40
2021,06,23,01,58,17.40
2021,06,23,01,59,17.40
2021,06,23,02,00,17.40
2021,06,23,02,01,17.40
2021,06,23,02,02,17.40
2021,06,23,02,03,17.40
2021,06,23,02,04,17.40
2021,06,23,02,05,17.40
2021,06,23,02,06,17.40
2021,06,23,02,07,17.30
2021,06,23,02,08,17.30
2021,06,23,02,09,17.30
2021,06,23,02,10,17.30
2021,06,23,02,11,17.30
2021,06,23,02,12,17.30
2021,06,23,02,13,17.30
2021,06,23,02,14,17.30
2021,06,23,02,15,17.30
2021,06,23,02,16,17.30
2021,06,23,02,17,17.30
2021,06,23,02,18,17.30
2021,06,23,02,19,17.20
2021,06,23,02,20,17.20
2021,06,23,02,21,17.20
2021,06,23,02,22,17.20
2021,06,23,02,23,17.10
2021,06,23,02,24,17.10
2021,06,23,02,25,17.10
2021,06,23,02,26,17.10
2021,06,23,02,27,17.10
2021,06,23,02,28,17.00
2021,06,23,02,29,17.00
2021,06,23,02,30,17.00
2021,06,23,02,31,17.00
2021,06,23,02,32,17.00
2021,06,23,02,33,17.00
2021,06,23,02,34,17.00
2021,06,23,02,35,17.00
2021,06,23,02,36,17.00
2021,06,23,02,37,16.90
2021,06,23,02,38,16.90
2021,06,23,02,39,16.90
2021,06,23,02,40,16.90
2021,06,23,02,41,16.80
2021,06,23,02,42,16.80
2021,06,23,02,43,16.80
2021,06,23,02,44,16.80
2021,06,23,02,45,16.70
2021,06,23,02,46,16.70
2021,06,23,02,47,16.70
2021,06,23,02,48,16.70
2021,06,23,02,49,16.70
2021,06,23,02,50,16.70
2021,06,23,02,51,16.70
2021,06,23,02,52,16.60
2021,06,23,02,53,16.60
2021,06,23,02,54,16.60
2021,06,23,02,55,16.60
2021,06,23,02,56,16.60
2021,06,23,02,57,16.50
2021,06,23,02,58,16.50
2021,06,23,02,59,16.50
2021,06,23,03,00,16.50
2021,06,23,03,01,16.50
2021,06,23,03,02,16.50
2021,06,23,03,03,16.50
2021,06,23,03,04,16.50
2021,06,23,03,05,16.50
2021,06,23,03,06,16.50
2021,06,23,03,07,16.50
2021,06,23,03,08,16.50
2021,06,23,03,09,16.50
2021,06,23,03,10,16.50
2021,06,23,03,11,16.50
2021,06,23,03,12,16.50
2021,06,23,03,13,16.40
2021,06,23,03,14,16.40
2021,06,23,03,15,16.30
2021,06,23,03,16,16.30
2021,06,23,03,17,16.30
2021,06,23,03,18,16.20
2021,06,23,03,19,16.20
2021,06,23,03,20,16.20
2021,06,23,03,21,16.20
2021,06,23,03,22,16.10
2021,06,23,03,23,16.10
2021,06,23,03,24,16.10
2021,06,23,03,25,16.00
2021,06,23,03,26,16.00
2021,06,23,03,27,16.00
2021,06,23,03,28,15.90
2021,06,23,03,29,15.90
2021,06,23,03,30,15.90
2021,06,23,03,31,15.80
2021,06,23,03,32,15.80
2021,06,23,03,33,15.80
2021,06,23,03,34,15.80
2021,06,23,03,35,15.70
2021,06,23,03,36,15.70
2021,06,23,03,37,15.70
2021,06,23,03,38,15.70
2021,06,23,03,39,15.60
2021,06,23,03,40,15.60
2021,06,23,03,41,15.60
2021,06,23,03,42,15.60
2021,06,23,03,43,15.60
2021,06,23,03,44,15.60
2021,06,23,03,45,15.50
2021,06,23,03,46,15.50
2021,06,23,03,47,15.50
2021,06,23,03,48,15.50
2021,06,23,03,49,15.50
2021,06,23,03,50,15.50
2021,06,23,03,51,15.40
2021,06,23,03,52,15.40
2021,06,23,03,53,15.40
2021,06,23,03,54,15.30
2021,06,23,03,55,15.30
2021,06,23,03,56,15.30
2021,06,23,03,57,15.30
2021,06,23,03,58,15.30
2021,06,23,03,59,15.30
2021,06,23,04,00,15.20
2021,06,23,04,01,15.20
2021,06,23,04,02,15.20
2021,06,23,04,03,15.20
2021,06,23,04,04,15.20
2021,06,23,04,05,15.20
2021,06,23,04,06,15.20
2021,06,23,04,07,15.20
2021,06,23,04,08,15.20
2021,06,23,04,09,15.20
2021,06,23,04,10,15.20
2021,06,23,04,11,15.20
2021,06,23,04,12,15.20
2021,06,23,04,13,15.10
2021,06,23,04,14,15.10
2021,06,23,04,15,15.10
2021,06,23,04,16,15.10
2021,06,23,04,17,15.10
2021,06,23,04,18,15.10
2021,06,23,04,19,15.00
2021,06,23,04,20,15.00
2021,06,23,04,21,15.00
2021,06,23,04,22,15.00
2021,06,23,04,23,15.00
2021,06,23,04,24,15.00
2021,06,23,04,25,15.00
2021,06,23,04,26,14.90
2021,06,23,04,27,15.00
2021,06,23,04,28,15.00
2021,06,23,04,29,14.90
2021,06,23,04,30,14.90
2021,06,23,04,31,14.90
2021,06,23,04,32,14.90
2021,06,23,04,33,14.90
2021,06,23,04,34,14.90
2021,06,23,04,35,14.90
2021,06,23,04,36,14.90
2021,06,23,04,37,14.80
2021,06,23,04,38,14.80
2021,06,23,04,39,14.80
2021,06,23,04,40,14.80
2021,06,23,04,41,14.80
2021,06,23,04,42,14.80
2021,06,23,04,43,14.70
2021,06,23,04,44,14.70
2021,06,23,04,45,14.70
2021,06,23,04,46,14.70
2021,06,23,04,47,14.70
2021,06,23,04,48,14.70
2021,06,23,04,49,14.70
2021,06,23,04,50,14.70
2021,06,23,04,51,14.70
2021,06,23,04,52,14.70
2021,06,23,04,53,14.60
2021,06,23,04,54,14.60
2021,06,23,04,55,14.60
2021,06,23,04,56,14.70
2021,06,23,04,57,14.70
2021,06,23,04,58,14.60
2021,06,23,04,59,14.60
2021,06,23,05,00,14.60
2021,06,23,05,01,14.60
2021,06,23,05,02,14.60
2021,06,23,05,03,14.60
2021,06,23,05,04,14.60
2021,06,23,05,05,14.60
2021,06,23,05,06,14.60
2021,06,23,05,07,14.60
2021,06,23,05,08,14.60
2021,06,23,05,09,14.60
2021,06,23,05,10,14.60
2021,06,23,05,11,14.60
2021,06,23,05,12,14.50
2021,06,23,05,13,14.50
2021,06,23,05,14,14.50
2021,06,23,05,15,14.50
2021,06,23,05,16,14.50
2021,06,23,05,17,14.40
2021,06,23,05,18,14.50
2021,06,23,05,19,14.40
2021,06,23,05,20,14.40
2021,06,23,05,21,14.40
2021,06,23,05,22,14.40
2021,06,23,05,23,14.40
2021,06,23,05,24,14.40
2021,06,23,05,25,14.40
2021,06,23,05,26,14.40
2021,06,23,05,27,14.40
2021,06,23,05,28,14.40
2021,06,23,05,29,14.40
2021,06,23,05,30,14.40
2021,06,23,05,31,14.40
2021,06,23,05,32,14.30
2021,06,23,05,33,14.30
2021,06,23,05,34,14.30
2021,06,23,05,35,14.30
2021,06,23,05,36,14.30
2021,06,23,05,37,14.20
2021,06,23,05,38,14.20
2021,06,23,05,39,14.20
2021,06,23,05,40,14.20
2021,06,23,05,41,14.20
2021,06,23,05,42,14.20
2021,06,23,05,43,14.20
2021,06,23,05,44,14.20
2021,06,23,05,45,14.20
2021,06,23,05,46,14.20
2021,06,23,05,47,14.20
2021,06,23,05,48,14.30
2021,06,23,05,49,14.30
2021,06,23,05,50,14.30
2021,06,23,05,51,14.40
2021,06,23,05,52,14.40
2021,06,23,05,53,14.50
2021,06,23,05,54,14.50
2021,06,23,05,55,14.60
2021,06,23,05,56,14.60
2021,06,23,05,57,14.70
2021,06,23,05,58,14.70
2021,06,23,05,59,14.70
2021,06,23,06,00,14.70
2021,06,23,06,01,14.80
2021,06,23,06,02,14.80
2021,06,23,06,03,14.90
2021,06,23,06,04,14.90
2021,06,23,06,05,14.90
2021,06,23,06,06,15.00
2021,06,23,06,07,15.00
2021,06,23,06,08,15.00
2021,06,23,06,09,15.00
2021,06,23,06,10,15.10
2021,06,23,06,11,15.10
2021,06,23,06,12,15.10
2021,06,23,06,13,15.10
2021,06,23,06,14,15.20
2021,06,23,06,15,15.20
2021,06,23,06,16,15.20
2021,06,23,06,17,15.20
2021,06,23,06,18,15.20
2021,06,23,06,19,15.20
2021,06,23,06,20,15.30
2021,06,23,06,21,15.30
2021,06,23,06,22,15.30
2021,06,23,06,23,15.30
2021,06,23,06,24,15.30
2021,06,23,06,25,15.30
2021,06,23,06,26,15.30
2021,06,23,06,27,15.30
2021,06,23,06,28,15.30
2021,06,23,06,29,15.30
2021,06,23,06,30,15.30
2021,06,23,06,31,15.30
2021,06,23,06,32,15.40
2021,06,23,06,33,15.40
2021,06,23,06,34,15.40
2021,06,23,06,35,15.40
2021,06,23,06,36,15.40
2021,06,23,06,37,15.40
2021,06,23,06,38,15.50
2021,06,23,06,39,15.50
2021,06,23,06,40,15.60
2021,06,23,06,41,15.60
2021,06,23,06,42,15.60
2021,06,23,06,43,15.70
2021,06,23,06,44,15.70
2021,06,23,06,45,15.80
2021,06,23,06,46,15.80
2021,06,23,06,47,15.80
2021,06,23,06,48,15.90
2021,06,23,06,49,15.90
2021,06,23,06,50,15.90
2021,06,23,06,51,15.90
2021,06,23,06,52,16.00
2021,06,23,06,53,16.00
2021,06,23,06,54,16.00
2021,06,23,06,55,16.00
2021,06,23,06,56,16.00
2021,06,23,06,57,16.00
2021,06,23,06,58,16.00
2021,06,23,06,59,15.90
2021,06,23,07,00,15.90
2021,06,23,07,01,16.00
2021,06,23,07,02,16.00
2021,06,23,07,03,16.00
2021,06,23,07,04,16.00
2021,06,23,07,05,16.00
2021,06,23,07,06,16.00
2021,06,23,07,07,16.10
2021,06,23,07,08,16.10
2021,06,23,07,09,16.10
2021,06,23,07,10,16.10
2021,06,23,07,11,16.10
2021,06,23,07,12,16.10
2021,06,23,07,13,16.10
2021,06,23,07,14,16.10
2021,06,23,07,15,16.10
2021,06,23,07,16,16.10
2021,06,23,07,17,16.20
2021,06,23,07,18,16.20
2021,06,23,07,19,16.20
2021,06,23,07,20,16.20
2021,06,23,07,21,16.30
2021,06,23,07,22,16.30
2021,06,23,07,23,16.30
2021,06,23,07,24,16.30
2021,06,23,07,25,16.40
2021,06,23,07,26,16.40
2021,06,23,07,27,16.50
2021,06,23,07,28,16.50
2021,06,23,07,29,16.60
2021,06,23,07,30,16.60
2021,06,23,07,31,16.60
2021,06,23,07,32,16.60
2021,06,23,07,33,16.60
2021,06,23,07,34,16.70
2021,06,23,07,35,16.70
2021,06,23,07,36,16.70
2021,06,23,07,37,16.70
2021,06,23,07,38,16.80
2021,06,23,07,39,16.80
2021,06,23,07,40,16.80
2021,06,23,07,41,16.80
2021,06,23,07,42,16.80
2021,06,23,07,43,16.80
2021,06,23,07,44,16.70
2021,06,23,07,45,16.70
2021,06,23,07,46,16.70
2021,06,23,07,47,16.70
2021,06,23,07,48,16.70
2021,06,23,07,49,16.70
2021,06,23,07,50,16.70
2021,06,23,07,51,16.70
2021,06,23,07,52,16.70
2021,06,23,07,53,16.60
2021,06,23,07,54,16.60
2021,06,23,07,55,16.60
2021,06,23,07,56,16.50
2021,06,23,07,57,16.50
2021,06,23,07,58,16.50
2021,06,23,07,59,16.40
2021,06,23,08,00,16.50
2021,06,23,08,01,16.50
2021,06,23,08,02,16.40
2021,06,23,08,03,16.40
2021,06,23,08,04,16.50
2021,06,23,08,05,16.50
2021,06,23,08,06,16.50
2021,06,23,08,07,16.50
2021,06,23,08,08,16.50
2021,06,23,08,09,16.60
2021,06,23,08,10,16.60
2021,06,23,08,11,16.60
2021,06,23,08,12,16.60
2021,06,23,08,13,16.60
2021,06,23,08,14,16.60
2021,06,23,08,15,16.60
2021,06,23,08,16,16.70
2021,06,23,08,17,16.70
2021,06,23,08,18,16.80
2021,06,23,08,19,16.80
2021,06,23,08,20,16.80
2021,06,23,08,21,16.80
2021,06,23,08,22,16.80
2021,06,23,08,23,16.70
2021,06,23,08,24,16.70
2021,06,23,08,25,16.70
2021,06,23,08,26,16.70
2021,06,23,08,27,16.70
2021,06,23,08,28,16.70
2021,06,23,08,29,16.70
2021,06,23,08,30,16.70
2021,06,23,08,31,16.70
2021,06,23,08,32,16.70
2021,06,23,08,33,16.70
2021,06,23,08,34,16.70
2021,06,23,08,35,16.70
2021,06,23,08,36,16.80
2021,06,23,08,37,16.80
2021,06,23,08,38,16.80
2021,06,23,08,39,16.80
2021,06,23,08,40,16.80
2021,06,23,08,41,16.90
2021,06,23,08,42,16.90
2021,06,23,08,43,17.00
2021,06,23,08,44,17.10
2021,06,23,08,45,17.10
2021,06,23,08,46,17.10
2021,06,23,08,47,17.20
2021,06,23,08,48,17.30
2021,06,23,08,49,17.30
2021,06,23,08,50,17.40
2021,06,23,08,51,17.40
2021,06,23,08,52,17.40
2021,06,23,08,53,17.40
2021,06,23,08,54,17.40
2021,06,23,08,55,17.40
2021,06,23,08,56,17.40
2021,06,23,08,57,17.50
2021,06,23,08,58,17.60
2021,06,23,08,59,17.60
2021,06,23,09,00,17.60
2021,06,23,09,01,17.70
2021,06,23,09,02,17.60
2021,06,23,09,03,17.60
2021,06,23,09,04,17.50
2021,06,23,09,05,17.50
2021,06,23,09,06,17.50
2021,06,23,09,07,17.50
2021,06,23,09,08,17.60
2021,06,23,09,09,17.60
2021,06,23,09,10,17.70
2021,06,23,09,11,17.70
2021,06,23,09,12,17.70
2021,06,23,09,13,17.80
2021,06,23,09,14,17.80
2021,06,23,09,15,17.90
2021,06,23,09,16,17.90
2021,06,23,09,17,17.90
2021,06,23,09,18,18.00
2021,06,23,09,19,18.10
2021,06,23,09,20,18.10
2021,06,23,09,21,18.10
2021,06,23,09,22,18.10
2021,06,23,09,23,18.10
2021,06,23,09,24,18.20
2021,06,23,09,25,18.20
2021,06,23,09,26,18.20
2021,06,23,09,27,18.20
2021,06,23,09,28,18.30
2021,06,23,09,29,18.20
2021,06,23,09,30,18.10
2021,06,23,09,31,18.10
2021,06,23,09,32,18.10
2021,06,23,09,33,18.10
2021,06,23,09,34,18.10
2021,06,23,09,35,18.20
2021,06,23,09,36,18.20
2021,06,23,09,37,18.10
2021,06,23,09,38,18.10
2021,06,23,09,39,18.00
2021,06,23,09,40,17.90
2021,06,23,09,41,17.90
2021,06,23,09,42,18.00
2021,06,23,09,43,18.00
2021,06,23,09,44,18.00
2021,06,23,09,45,17.90
2021,06,23,09,46,17.90
2021,06,23,09,47,17.90
2021,06,23,09,48,17.80
2021,06,23,09,49,17.80
2021,06,23,09,50,17.90
2021,06,23,09,51,18.00
2021,06,23,09,52,18.20
2021,06,23,09,53,18.30
2021,06,23,09,54,18.30
2021,06,23,09,55,18.40
2021,06,23,09,56,18.40
2021,06,23,09,57,18.40
2021,06,23,09,58,18.40
2021,06,23,09,59,18.40
2021,06,23,10,00,18.30
2021,06,23,10,01,18.30
2021,06,23,10,02,18.30
2021,06,23,10,03,18.40
2021,06,23,10,04,18.50
2021,06,23,10,05,18.50
2021,06,23,10,06,18.60
2021,06,23,10,07,18.60
2021,06,23,10,08,18.70
2021,06,23,10,09,18.70
2021,06,23,10,10,18.70
2021,06,23,10,11,18.70
2021,06,23,10,12,18.70
2021,06,23,10,13,18.80
2021,06,23,10,14,18.70
2021,06,23,10,15,18.70
2021,06,23,10,16,18.70
2021,06,23,10,17,18.80
2021,06,23,10,18,18.80
2021,06,23,10,19,18.90
2021,06,23,10,20,18.90
2021,06,23,10,21,18.80
2021,06,23,10,22,18.80
2021,06,23,10,23,18.80
2021,06,23,10,24,18.80
2021,06,23,10,25,18.80
2021,06,23,10,26,18.80
2021,06,23,10,27,18.70
2021,06,23,10,28,18.70
2021,06,23,10,29,18.70
2021,06,23,10,30,18.70
2021,06,23,10,31,18.70
2021,06,23,10,32,18.70
2021,06,23,10,33,18.70
2021,06,23,10,34,18.60
2021,06,23,10,35,18.60
2021,06,23,10,36,18.60
2021,06,23,10,37,18.60
2021,06,23,10,38,18.50
2021,06,23,10,39,18.50
2021,06,23,10,40,18.40
2021,06,23,10,41,18.50
2021,06,23,10,42,18.60
2021,06,23,10,43,18.50
2021,06,23,10,44,18.60
2021,06,23,10,45,18.50
2021,06,23,10,46,18.50
2021,06,23,10,47,18.50
2021,06,23,10,48,18.60
2021,06,23,10,49,18.70
2021,06,23,10,50,18.70
2021,06,23,10,51,18.80
2021,06,23,10,52,18.80
2021,06,23,10,53,18.80
2021,06,23,10,54,18.80
2021,06,23,10,55,18.90
2021,06,23,10,56,18.90
2021,06,23,10,57,18.90
2021,06,23,10,58,19.00
2021,06,23,10,59,19.00
2021,06,23,11,00,19.10
2021,06,23,11,01,19.10
2021,06,23,11,02,19.00
2021,06,23,11,03,19.10
2021,06,23,11,04,19.00
2021,06,23,11,05,18.90
2021,06,23,11,06,18.90
2021,06,23,11,07,18.90
2021,06,23,11,08,19.00
2021,06,23,11,09,19.00
2021,06,23,11,10,19.10
2021,06,23,11,11,19.20
2021,06,23,11,12,19.30
2021,06,23,11,13,19.30
2021,06,23,11,14,19.40
2021,06,23,11,15,19.40
2021,06,23,11,16,19.50
2021,06,23,11,17,19.60
2021,06,23,11,18,19.70
2021,06,23,11,19,19.80
2021,06,23,11,20,19.90
2021,06,23,11,21,19.90
2021,06,23,11,22,20.00
2021,06,23,11,23,20.00
2021,06,23,11,24,20.10
2021,06,23,11,25,20.10
2021,06,23,11,26,20.20
2021,06,23,11,27,20.30
2021,06,23,11,28,20.30
2021,06,23,11,29,20.40
2021,06,23,11,30,20.50
2021,06,23,11,31,20.70
2021,06,23,11,32,20.80
2021,06,23,11,33,20.90
2021,06,23,11,34,21.00
2021,06,23,11,35,21.00
2021,06,23,11,36,21.10
2021,06,23,11,37,21.00
2021,06,23,11,38,21.00
2021,06,23,11,39,20.90
2021,06,23,11,40,20.90
2021,06,23,11,41,20.80
2021,06,23,11,42,20.80
2021,06,23,11,43,20.80
2021,06,23,11,44,20.90
2021,06,23,11,45,20.80
2021,06,23,11,46,20.80
2021,06,23,11,47,20.80
2021,06,23,11,48,20.80
2021,06,23,11,49,20.80
2021,06,23,11,50,20.80
2021,06,23,11,51,20.80
2021,06,23,11,52,20.80
2021,06,23,11,53,20.80
2021,06,23,11,54,20.80
2021,06,23,11,55,20.90
2021,06,23,11,56,21.00
2021,06,23,11,57,21.00
2021,06,23,11,58,21.00
2021,06,23,11,59,20.90
2021,06,23,12,00,20.80
2021,06,23,12,01,20.80
2021,06,23,12,02,20.70
2021,06,23,12,03,20.60
2021,06,23,12,04,20.60
2021,06,23,12,05,20.50
2021,06,23,12,06,20.50
2021,06,23,12,07,20.40
2021,06,23,12,08,20.50
2021,06,23,12,09,20.60
2021,06,23,12,10,20.60
2021,06,23,12,11,20.70
2021,06,23,12,12,20.70
2021,06,23,12,13,20.80
2021,06,23,12,14,20.70
2021,06,23,12,15,20.70
2021,06,23,12,16,20.60
2021,06,23,12,17,20.60
2021,06,23,12,18,20.60
2021,06,23,12,19,20.70
2021,06,23,12,20,20.70
2021,06,23,12,21,20.70
2021,06,23,12,22,20.70
2021,06,23,12,23,20.60
2021,06,23,12,24,20.60
2021,06,23,12,25,20.70
2021,06,23,12,26,20.70
2021,06,23,12,27,20.90
2021,06,23,12,28,20.90
2021,06,23,12,29,21.00
2021,06,23,12,30,21.00
2021,06,23,12,31,21.10
2021,06,23,12,32,21.20
2021,06,23,12,33,21.20
2021,06,23,12,34,21.20
2021,06,23,12,35,21.10
2021,06,23,12,36,21.10
2021,06,23,12,37,21.10
2021,06,23,12,38,21.10
2021,06,23,12,39,21.20
2021,06,23,12,40,21.20
2021,06,23,12,41,21.20
2021,06,23,12,42,21.20
2021,06,23,12,43,21.20
2021,06,23,12,44,21.20
2021,06,23,12,45,21.20
2021,06,23,12,46,21.20
2021,06,23,12,47,21.20
2021,06,23,12,48,21.20
2021,06,23,12,49,21.20
2021,06,23,12,50,21.30
2021,06,23,12,51,21.30
2021,06,23,12,52,21.40
2021,06,23,12,53,21.40
2021,06,23,12,54,21.40
2021,06,23,12,55,21.50
2021,06,23,12,56,21.60
2021,06,23,12,57,21.60
2021,06,23,12,58,21.60
2021,06,23,12,59,21.60
2021,06,23,13,00,21.70
2021,06,23,13,01,21.70
2021,06,23,13,02,21.80
2021,06,23,13,03,21.80
2021,06,23,13,04,21.80
2021,06,23,13,05,22.00
2021,06,23,13,06,22.00
2021,06,23,13,07,22.10
2021,06,23,13,08,22.20
2021,06,23,13,09,22.20
2021,06,23,13,10,22.10
2021,06,23,13,11,22.10
2021,06,23,13,12,22.00
2021,06,23,13,13,21.90
2021,06,23,13,14,21.80
2021,06,23,13,15,21.80
2021,06,23,13,16,21.80
2021,06,23,13,17,21.80
2021,06,23,13,18,21.80
2021,06,23,13,19,21.70
2021,06,23,13,20,21.70
2021,06,23,13,21,21.60
2021,06,23,13,22,21.60
2021,06,23,13,23,21.70
2021,06,23,13,24,21.60
2021,06,23,13,25,21.60
2021,06,23,13,26,21.60
2021,06,23,13,27,21.50
2021,06,23,13,28,21.50
2021,06,23,13,29,21.50
2021,06,23,13,30,21.50
2021,06,23,13,31,21.60
2021,06,23,13,32,21.60
2021,06,23,13,33,21.60
2021,06,23,13,34,21.50
2021,06,23,13,35,21.50
2021,06,23,13,36,21.40
2021,06,23,13,37,21.40
2021,06,23,13,38,21.40
2021,06,23,13,39,21.40
2021,06,23,13,40,21.40
2021,06,23,13,41,21.40
2021,06,23,13,42,21.50
2021,06,23,13,43,21.50
2021,06,23,13,44,21.60
2021,06,23,13,45,21.70
2021,06,23,13,46,21.90
2021,06,23,13,47,21.90
2021,06,23,13,48,22.00
2021,06,23,13,49,22.10
2021,06,23,13,50,22.10
2021,06,23,13,51,22.10
2021,06,23,13,52,22.10
2021,06,23,13,53,22.10
2021,06,23,13,54,22.10
2021,06,23,13,55,22.10
2021,06,23,13,56,22.10
2021,06,23,13,57,22.10
2021,06,23,13,58,22.10
2021,06,23,13,59,22.20
2021,06,23,14,00,22.30
2021,06,23,14,01,22.40
2021,06,23,14,02,22.50
2021,06,23,14,03,22.50
2021,06,23,14,04,22.40
2021,06,23,14,05,22.30
2021,06,23,14,06,22.40
2021,06,23,14,07,22.50
2021,06,23,14,08,22.50
2021,06,23,14,09,22.40
2021,06,23,14,10,22.40
2021,06,23,14,11,22.60
2021,06,23,14,12,22.60
2021,06,23,14,13,22.50
2021,06,23,14,14,22.50
2021,06,23,14,15,22.50
2021,06,23,14,16,22.30
2021,06,23,14,17,22.20
2021,06,23,14,18,22.10
2021,06,23,14,19,22.10
2021,06,23,14,20,22.00
2021,06,23,14,21,22.10
2021,06,23,14,22,22.30
2021,06,23,14,23,22.30
2021,06,23,14,24,22.40
2021,06,23,14,25,22.50
2021,06,23,14,26,22.60
2021,06,23,14,27,22.60
2021,06,23,14,28,22.50
2021,06,23,14,29,22.40
2021,06,23,14,30,22.30
2021,06,23,14,31,22.30
2021,06,23,14,32,22.40
2021,06,23,14,33,22.50
2021,06,23,14,34,22.70
2021,06,23,14,35,22.90
2021,06,23,14,36,23.10
2021,06,23,14,37,23.20
2021,06,23,14,38,23.20
2021,06,23,14,39,23.20
2021,06,23,14,40,23.10
2021,06,23,14,41,23.10
2021,06,23,14,42,23.10
2021,06,23,14,43,23.10
2021,06,23,14,44,23.10
2021,06,23,14,45,23.20
2021,06,23,14,46,23.20
2021,06,23,14,47,23.20
2021,06,23,14,48,23.20
2021,06,23,14,49,23.30
2021,06,23,14,50,23.30
2021,06,23,14,51,23.20
2021,06,23,14,52,23.20
2021,06,23,14,53,23.20
2021,06,23,14,54,23.30
2021,06,23,14,55,23.30
2021,06,23,14,56,23.30
2021,06,23,14,57,23.20
2021,06,23,14,58,23.20
2021,06,23,14,59,23.10
2021,06,23,15,00,23.10
2021,06,23,15,01,23.10
2021,06,23,15,02,23.10
2021,06,23,15,03,23.10
2021,06,23,15,04,23.10
2021,06,23,15,05,23.10
2021,06,23,15,06,23.10
2021,06,23,15,07,23.20
2021,06,23,15,08,23.30
2021,06,23,15,09,23.40
2021,06,23,15,10,23.40
2021,06,23,15,11,23.40
2021,06,23,15,12,23.40
2021,06,23,15,13,23.40
2021,06,23,15,14,23.30
2021,06,23,15,15,23.40
2021,06,23,15,16,23.50
2021,06,23,15,17,23.60
2021,06,23,15,18,23.70
2021,06,23,15,19,23.70
2021,06,23,15,20,23.70
2021,06,23,15,21,23.80
2021,06,23,15,22,23.80
2021,06,23,15,23,23.90
2021,06,23,15,24,23.90
2021,06,23,15,25,24.00
2021,06,23,15,26,24.00
2021,06,23,15,27,24.00
2021,06,23,15,28,24.00
2021,06,23,15,29,23.90
2021,06,23,15,30,23.80
2021,06,23,15,31,23.70
2021,06,23,15,32,23.60
2021,06,23,15,33,23.60
2021,06,23,15,34,23.50
2021,06,23,15,35,23.50
2021,06,23,15,36,23.40
2021,06,23,15,37,23.40
2021,06,23,15,38,23.40
2021,06,23,15,39,23.50
2021,06,23,15,40,23.60
2021,06,23,15,41,23.70
2021,06,23,15,42,23.70
2021,06,23,15,43,23.70
2021,06,23,15,44,23.70
2021,06,23,15,45,23.60
2021,06,23,15,46,23.60
2021,06,23,15,47,23.50
2021,06,23,15,48,23.50
2021,06,23,15,49,23.60
2021,06,23,15,50,23.60
2021,06,23,15,51,23.60
2021,06,23,15,52,23.60
2021,06,23,15,53,23.70
2021,06,23,15,54,23.80
2021,06,23,15,55,23.90
2021,06,23,15,56,24.00
2021,06,23,15,57,24.10
2021,06,23,15,58,24.30
2021,06,23,15,59,24.40
2021,06,23,16,00,24.60
2021,06,23,16,01,24.70
2021,06,23,16,02,24.70
2021,06,23,16,03,24.70
2021,06,23,16,04,24.70
2021,06,23,16,05,24.70
2021,06,23,16,06,24.80
2021,06,23,16,07,24.80
2021,06,23,16,08,24.80
2021,06,23,16,09,24.80
2021,06,23,16,10,24.80
2021,06,23,16,11,24.90
2021,06,23,16,12,24.90
2021,06,23,16,13,24.80
2021,06,23,16,14,24.80
2021,06,23,16,15,24.70
2021,06,23,16,16,24.70
2021,06,23,16,17,24.70
2021,06,23,16,18,24.70
2021,06,23,16,19,24.70
2021,06,23,16,20,24.70
2021,06,23,16,21,24.70
2021,06,23,16,22,24.80
2021,06,23,16,23,24.70
2021,06,23,16,24,24.60
2021,06,23,16,25,24.60
2021,06,23,16,26,24.60
2021,06,23,16,27,24.60
2021,06,23,16,28,24.60
2021,06,23,16,29,24.50
2021,06,23,16,30,24.40
2021,06,23,16,31,24.50
2021,06,23,16,32,24.50
2021,06,23,16,33,24.60
2021,06,23,16,34,24.70
2021,06,23,16,35,24.70
2021,06,23,16,36,24.70
2021,06,23,16,37,24.80
2021,06,23,16,38,24.90
2021,06,23,16,39,25.10
2021,06,23,16,40,25.10
2021,06,23,16,41,25.10
2021,06,23,16,42,25.10
2021,06,23,16,43,25.20
2021,06,23,16,44,25.20
2021,06,23,16,45,25.20
2021,06,23,16,46,25.30
2021,06,23,16,47,25.40
2021,06,23,16,48,25.50
2021,06,23,16,49,25.50
2021,06,23,16,50,25.60
2021,06,23,16,51,25.60
2021,06,23,16,52,25.60
2021,06,23,16,53,25.60
2021,06,23,16,54,25.60
2021,06,23,16,55,25.60
2021,06,23,16,56,25.50
2021,06,23,16,57,25.40
2021,06,23,16,58,25.40
2021,06,23,16,59,25.30
2021,06,23,17,00,25.30
2021,06,23,17,01,25.20
2021,06,23,17,02,25.20
2021,06,23,17,03,25.10
2021,06,23,17,04,25.10
2021,06,23,17,05,25.20
2021,06,23,17,06,25.30
2021,06,23,17,07,25.40
2021,06,23,17,08,25.40
2021,06,23,17,09,25.40
2021,06,23,17,10,25.40
2021,06,23,17,11,25.30
2021,06,23,17,12,25.30
2021,06,23,17,13,25.20
2021,06,23,17,14,25.10
2021,06,23,17,15,25.10
2021,06,23,17,16,25.00
2021,06,23,17,17,25.00
2021,06,23,17,18,24.90
2021,06,23,17,19,24.90